QPF
0.00 0.00 0.00 0.00 0.00 0.00 0.00 0.00 0.00 0.00 0.00 0.00 0.00 0.00 0.00 0.00 0.00 0.00 0.00 0.00 0.00 0.00 0.00 0.00 0.00 0.00 0.00 0.00 0.00 0.00 0.00 0.00 0.00 0.00 0.00 0.00 0.00 0.00 0.00 0.00 0.00 0.00 0.00
0.00 0.00 0.00 0.00 0.00 0.00 0.00 0.00 0.00 0.00 0.00 0.00 0.00 0.00 0.00 0.00 0.00 0.00 0.00 0.00 0.00 0.00 0.00 0.00 0.00 0.00 0.00 0.00 0.00 0.00 0.00 0.00 0.00 0.00 0.00 0.00 0.00 0.00 0.00 0.00 0.00 0.00 0.00
0.00 0.00 0.00 0.00 0.00 0.00 0.00 0.00 0.00 0.00 0.00 0.00 0.00 0.00 0.00 0.00 0.00 0.00 0.00 0.00 0.00 0.00 0.00 0.00 0.00 0.00 0.00 0.00 0.00 0.00 0.00 0.00 0.00 0.00 0.00 0.00 0.00 0.00 0.00 0.00 0.00 0.00 0.00
0.00 0.00 0.00 0.00 0.00 0.00 0.00 0.00 0.00 0.00 0.00 0.00 0.00 0.00 0.00 0.00 0.00 0.00 0.00 0.00 0.00 0.00 0.00 0.00 0.00 0.00 0.00 0.00 0.01 0.00 0.00 0.00 0.00 0.01 0.01 0.00 0.00 0.00 0.01 0.01 0.01 0.01 0.00
0.00 0.00 0.00 0.00 0.00 0.00 0.00 0.00 0.00 0.00 0.00 0.00 0.00 0.00 0.00 0.00 0.00 0.00 0.00 0.00 0.00 0.00 0.00 0.00 0.00 0.00 0.00 0.00 0.01 0.01 0.01 0.01 0.02 0.02 0.02 0.01 0.01 0.01 0.02 0.02 0.03 0.01 0.01
0.00 0.00 0.00 0.00 0.00 0.00 0.00 0.00 0.00 0.00 0.00 0.00 0.00 0.00 0.00 0.00 0.00 0.00 0.00 0.00 0.00 0.00 0.00 0.00 0.00 0.01 0.01 0.01 0.01 0.01 0.02 0.03 0.04 0.04 0.03 0.02 0.01 0.01 0.01 0.02 0.02 0.02 0.01
0.00 0.00 0.00 0.00 0.00 0.00 0.00 0.00 0.00 0.00 0.00 0.00 0.00 0.00 0.00 0.00 0.00 0.00 0.00 0.00 0.00 0.00 0.00 0.00 0.01 0.01 0.01 0.01 0.02 0.02 0.03 0.03 0.03 0.04 0.04 0.02 0.01 0.01 0.01 0.02 0.02 0.03 0.03
0.00 0.00 0.00 0.00 0.00 0.00 0.00 0.00 0.00 0.00 0.00 0.00 0.00 0.00 0.00 0.00 0.00 0.00 0.00 0.01 0.01 0.00 0.00 0.01 0.01 0.01 0.01 0.01 0.02 0.02 0.01 0.01 0.01 0.01 0.02 0.01 0.01 0.01 0.04 0.08 0.10 0.08 0.04
0.00 0.00 0.00 0.00 0.00 0.00 0.00 0.00 0.00 0.00 0.00 0.00 0.00 0.00 0.00 0.00 0.00 0.00 0.00 0.01 0.02 0.01 0.01 0.01 0.01 0.01 0.01 0.02 0.03 0.02 0.01 0.00 0.01 0.01 0.02 0.02 0.03 0.04 0.05 0.07 0.08 0.05 0.02
0.00 0.00 0.00 0.00 0.00 0.00 0.00 0.00 0.00 0.00 0.00 0.00 0.00 0.00 0.00 0.00 0.00 0.00 0.01 0.02 0.03 0.02 0.02 0.01 0.01 0.01 0.01 0.02 0.04 0.03 0.01 0.01 0.01 0.01 0.01 0.01 0.01 0.01 0.01 0.02 0.02 0.03 0.03
0.00 0.00 0.00 0.00 0.00 0.00 0.00 0.00 0.00 0.00 0.00 0.00 0.00 0.00 0.00 0.00 0.00 0.00 0.01 0.02 0.02 0.02 0.03 0.02 0.01 0.01 0.03 0.03 0.03 0.02 0.01 0.01 0.01 0.01 0.01 0.00 0.00 0.00 0.00 0.01 0.01 0.03 0.05
0.00 0.00 0.00 0.00 0.00 0.00 0.00 0.00 0.00 0.00 0.00 0.00 0.00 0.00 0.00 0.00 0.00 0.00 0.01 0.02 0.03 0.03 0.03 0.02 0.01 0.01 0.02 0.03 0.03 0.03 0.02 0.02 0.02 0.02 0.01 0.00 0.00 0.00 0.00 0.00 0.01 0.01 0.02
0.00 0.00 0.00 0.00 0.00 0.00 0.00 0.00 0.00 0.00 0.00 0.00 0.00 0.00 0.00 0.00 0.00 0.00 0.01 0.02 0.06 0.07 0.04 0.02 0.02 0.02 0.02 0.02 0.02 0.02 0.02 0.02 0.01 0.01 0.00 0.00 0.00 0.00 0.00 0.00 0.00 0.01 0.01
0.00 0.00 0.00 0.00 0.00 0.00 0.00 0.00 0.00 0.00 0.00 0.00 0.00 0.00 0.00 0.00 0.00 0.00 0.01 0.02 0.04 0.09 0.09 0.05 0.03 0.03 0.03 0.01 0.01 0.01 0.01 0.01 0.00 0.00 0.00 0.00 0.00 0.00 0.00 0.00 0.01 0.01 0.02
0.00 0.00 0.00 0.00 0.00 0.00 0.00 0.00 0.00 0.00 0.00 0.00 0.00 0.00 0.00 0.00 0.00 0.00 0.01 0.01 0.02 0.04 0.11 0.13 0.08 0.05 0.04 0.02 0.01 0.00 0.00 0.00 0.00 0.00 0.00 0.00 0.00 0.00 0.00 0.00 0.01 0.01 0.02
0.00 0.00 0.00 0.00 0.00 0.00 0.00 0.00 0.00 0.00 0.00 0.00 0.00 0.00 0.00 0.00 0.01 0.01 0.02 0.03 0.03 0.05 0.11 0.12 0.07 0.03 0.02 0.01 0.01 0.00 0.00 0.00 0.00 0.00 0.00 0.00 0.00 0.00 0.00 0.00 0.01 0.02 0.02
0.00 0.00 0.00 0.00 0.00 0.00 0.00 0.00 0.00 0.00 0.00 0.00 0.00 0.00 0.01 0.01 0.01 0.02 0.03 0.05 0.06 0.08 0.12 0.07 0.03 0.02 0.01 0.01 0.00 0.00 0.00 0.00 0.00 0.00 0.00 0.00 0.01 0.01 0.01 0.01 0.01 0.01 0.02
0.00 0.00 0.00 0.00 0.00 0.00 0.00 0.00 0.00 0.00 0.00 0.00 0.00 0.00 0.00 0.01 0.02 0.03 0.05 0.09 0.10 0.10 0.09 0.05 0.03 0.02 0.01 0.01 0.00 0.00 0.00 0.00 0.00 0.00 0.00 0.00 0.01 0.01 0.01 0.01 0.01 0.02 0.02
0.00 0.00 0.00 0.00 0.00 0.00 0.00 0.01 0.01 0.01 0.01 0.00 0.00 0.00 0.00 0.01 0.03 0.04 0.08 0.12 0.09 0.06 0.05 0.03 0.02 0.01 0.01 0.00 0.00 0.00 0.00 0.00 0.00 0.00 0.00 0.01 0.01 0.01 0.01 0.01 0.01 0.01 0.02
0.00 0.00 0.01 0.01 0.01 0.01 0.01 0.01 0.01 0.02 0.01 0.01 0.01 0.01 0.01 0.02 0.04 0.05 0.08 0.10 0.07 0.04 0.03 0.02 0.01 0.01 0.00 0.00 0.00 0.00 0.00 0.00 0.00 0.00 0.00 0.01 0.01 0.01 0.01 0.01 0.01 0.02 0.02
0.00 0.01 0.01 0.01 0.01 0.01 0.01 0.02 0.02 0.03 0.03 0.02 0.02 0.01 0.02 0.04 0.04 0.04 0.05 0.06 0.05 0.03 0.02 0.01 0.01 0.01 0.00 0.00 0.00 0.00 0.00 0.00 0.00 0.00 0.01 0.01 0.01 0.01 0.01 0.01 0.02 0.02 0.02
0.00 0.01 0.01 0.01 0.01 0.02 0.02 0.03 0.03 0.04 0.04 0.04 0.03 0.02 0.02 0.04 0.05 0.05 0.05 0.04 0.03 0.02 0.01 0.01 0.01 0.00 0.00 0.00 0.00 0.00 0.00 0.00 0.00 0.01 0.01 0.01 0.01 0.01 0.01 0.01 0.01 0.02 0.02
0.01 0.01 0.01 0.02 0.02 0.03 0.03 0.03 0.04 0.05 0.05 0.04 0.04 0.03 0.02 0.02 0.04 0.05 0.05 0.04 0.03 0.02 0.02 0.01 0.01 0.00 0.00 0.00 0.00 0.00 0.00 0.00 0.00 0.01 0.02 0.02 0.02 0.01 0.01 0.01 0.01 0.02 0.02
0.01 0.01 0.02 0.02 0.03 0.03 0.04 0.04 0.05 0.05 0.05 0.05 0.04 0.03 0.02 0.02 0.03 0.04 0.04 0.04 0.03 0.03 0.02 0.01 0.01 0.00 0.00 0.00 0.00 0.00 0.00 0.00 0.01 0.02 0.02 0.03 0.02 0.01 0.01 0.01 0.02 0.02 0.03
0.01 0.02 0.03 0.03 0.04 0.05 0.05 0.05 0.05 0.05 0.05 0.04 0.04 0.03 0.02 0.02 0.03 0.03 0.03 0.03 0.03 0.02 0.01 0.01 0.01 0.00 0.00 0.00 0.00 0.00 0.00 0.00 0.01 0.02 0.03 0.02 0.02 0.01 0.01 0.02 0.02 0.02 0.03
0.02 0.02 0.03 0.04 0.04 0.05 0.06 0.06 0.06 0.05 0.05 0.05 0.04 0.03 0.03 0.02 0.02 0.02 0.02 0.02 0.02 0.01 0.01 0.01 0.00 0.00 0.00 0.00 0.00 0.00 0.00 0.01 0.01 0.02 0.02 0.01 0.01 0.01 0.01 0.02 0.02 0.02 0.03
MSLP
1010.78 1010.85 1010.93 1010.98 1010.98 1010.92 1010.83 1010.72 1010.63 1010.59 1010.62 1010.73 1010.90 1011.13 1011.40 1011.67 1011.95 1012.22 1012.48 1012.75 1013.03 1013.33 1013.67 1014.06 1014.47 1014.92 1015.37 1015.81 1016.21 1016.55 1016.83 1017.02 1017.12 1017.13 1017.05 1016.90 1016.68 1016.41 1016.10 1015.75 1015.37 1014.98 1014.59
1010.48 1010.49 1010.51 1010.50 1010.44 1010.34 1010.21 1010.06 1009.92 1009.83 1009.79 1009.81 1009.91 1010.06 1010.25 1010.47 1010.71 1010.96 1011.23 1011.51 1011.81 1012.15 1012.53 1012.94 1013.39 1013.86 1014.33 1014.79 1015.22 1015.59 1015.90 1016.12 1016.27 1016.32 1016.28 1016.16 1015.96 1015.69 1015.35 1014.96 1014.53 1014.07 1013.59
1010.30 1010.25 1010.21 1010.15 1010.05 1009.90 1009.72 1009.53 1009.33 1009.17 1009.04 1008.98 1008.97 1009.03 1009.13 1009.28 1009.48 1009.71 1009.97 1010.27 1010.62 1011.01 1011.43 1011.90 1012.38 1012.88 1013.37 1013.84 1014.27 1014.65 1014.97 1015.21 1015.37 1015.45 1015.45 1015.35 1015.16 1014.89 1014.54 1014.12 1013.63 1013.11 1012.55
1010.18 1010.09 1010.00 1009.89 1009.75 1009.56 1009.34 1009.09 1008.84 1008.59 1008.38 1008.22 1008.10 1008.05 1008.06 1008.13 1008.27 1008.47 1008.74 1009.07 1009.47 1009.91 1010.40 1010.91 1011.44 1011.96 1012.46 1012.93 1013.34 1013.71 1014.01 1014.24 1014.40 1014.49 1014.50 1014.42 1014.25 1013.98 1013.62 1013.18 1012.67 1012.09 1011.48
1010.09 1009.96 1009.83 1009.68 1009.49 1009.26 1008.99 1008.70 1008.39 1008.07 1007.78 1007.51 1007.29 1007.13 1007.05 1007.04 1007.12 1007.30 1007.57 1007.93 1008.36 1008.87 1009.41 1009.97 1010.54 1011.07 1011.57 1012.01 1012.40 1012.72 1012.99 1013.19 1013.33 1013.41 1013.42 1013.35 1013.20 1012.95 1012.60 1012.16 1011.63 1011.04 1010.40
1009.97 1009.81 1009.64 1009.44 1009.21 1008.94 1008.63 1008.29 1007.93 1007.55 1007.18 1006.83 1006.52 1006.27 1006.10 1006.02 1006.05 1006.20 1006.46 1006.84 1007.31 1007.86 1008.44 1009.05 1009.63 1010.17 1010.65 1011.06 1011.40 1011.67 1011.88 1012.04 1012.15 1012.21 1012.23 1012.17 1012.04 1011.82 1011.50 1011.08 1010.57 1009.99 1009.35
1009.79 1009.59 1009.37 1009.12 1008.85 1008.54 1008.20 1007.83 1007.43 1007.01 1006.59 1006.17 1005.79 1005.46 1005.22 1005.07 1005.05 1005.17 1005.42 1005.80 1006.29 1006.86 1007.47 1008.09 1008.68 1009.21 1009.66 1010.03 1010.31 1010.53 1010.69 1010.80 1010.89 1010.94 1010.95 1010.92 1010.82 1010.64 1010.36 1009.99 1009.52 1008.97 1008.36
1009.54 1009.28 1009.01 1008.71 1008.39 1008.05 1007.68 1007.28 1006.86 1006.42 1005.96 1005.51 1005.08 1004.70 1004.40 1004.20 1004.14 1004.21 1004.43 1004.80 1005.29 1005.85 1006.47 1007.08 1007.65 1008.16 1008.58 1008.91 1009.15 1009.32 1009.44 1009.53 1009.60 1009.65 1009.68 1009.68 1009.62 1009.49 1009.27 1008.95 1008.52 1008.02 1007.44
1009.21 1008.90 1008.56 1008.21 1007.85 1007.47 1007.08 1006.67 1006.24 1005.79 1005.33 1004.86 1004.41 1004.00 1003.65 1003.41 1003.30 1003.33 1003.51 1003.84 1004.29 1004.83 1005.41 1006.00 1006.55 1007.03 1007.42 1007.72 1007.93 1008.08 1008.19 1008.27 1008.35 1008.42 1008.48 1008.52 1008.51 1008.43 1008.26 1007.99 1007.61 1007.15 1006.61
1008.83 1008.45 1008.05 1007.65 1007.25 1006.84 1006.44 1006.03 1005.60 1005.16 1004.70 1004.24 1003.78 1003.35 1002.98 1002.70 1002.54 1002.52 1002.64 1002.92 1003.32 1003.80 1004.34 1004.89 1005.40 1005.85 1006.23 1006.51 1006.72 1006.88 1007.00 1007.10 1007.21 1007.31 1007.42 1007.49 1007.52 1007.48 1007.35 1007.12 1006.78 1006.34 1005.83
1008.43 1007.98 1007.52 1007.07 1006.63 1006.21 1005.79 1005.38 1004.97 1004.55 1004.11 1003.65 1003.19 1002.76 1002.37 1002.06 1001.86 1001.78 1001.85 1002.05 1002.39 1002.81 1003.29 1003.79 1004.27 1004.70 1005.06 1005.35 1005.59 1005.77 1005.93 1006.08 1006.23 1006.37 1006.51 1006.62 1006.68 1006.67 1006.55 1006.33 1006.00 1005.57 1005.06
1008.02 1007.51 1007.01 1006.51 1006.05 1005.60 1005.18 1004.78 1004.38 1003.97 1003.55 1003.11 1002.67 1002.23 1001.83 1001.50 1001.26 1001.13 1001.13 1001.27 1001.53 1001.88 1002.30 1002.75 1003.20 1003.62 1003.99 1004.31 1004.58 1004.82 1005.03 1005.23 1005.42 1005.61 1005.78 1005.90 1005.97 1005.95 1005.83 1005.59 1005.25 1004.80 1004.28
1007.61 1007.06 1006.52 1006.00 1005.51 1005.05 1004.63 1004.23 1003.83 1003.44 1003.03 1002.61 1002.18 1001.75 1001.35 1001.00 1000.73 1000.56 1000.51 1000.58 1000.78 1001.07 1001.43 1001.84 1002.26 1002.68 1003.07 1003.42 1003.74 1004.03 1004.30 1004.55 1004.79 1005.00 1005.18 1005.30 1005.35 1005.30 1005.14 1004.87 1004.49 1004.01 1003.46
1007.22 1006.64 1006.08 1005.54 1005.03 1004.56 1004.13 1003.72 1003.32 1002.93 1002.53 1002.12 1001.70 1001.28 1000.89 1000.53 1000.25 1000.05 999.96 999.99 1000.13 1000.37 1000.70 1001.07 1001.48 1001.90 1002.31 1002.70 1003.06 1003.41 1003.73 1004.02 1004.28 1004.51 1004.67 1004.77 1004.77 1004.68 1004.46 1004.14 1003.72 1003.20 1002.61
1006.82 1006.24 1005.67 1005.12 1004.60 1004.11 1003.66 1003.23 1002.82 1002.42 1002.02 1001.62 1001.21 1000.80 1000.42 1000.07 999.79 999.59 999.48 999.49 999.60 999.80 1000.10 1000.45 1000.85 1001.27 1001.70 1002.12 1002.53 1002.91 1003.27 1003.59 1003.86 1004.08 1004.22 1004.27 1004.22 1004.06 1003.79 1003.41 1002.94 1002.38 1001.77
1006.42 1005.85 1005.27 1004.72 1004.18 1003.67 1003.19 1002.73 1002.29 1001.87 1001.46 1001.05 1000.65 1000.26 999.90 999.58 999.32 999.14 999.04 999.04 999.14 999.33 999.61 999.95 1000.35 1000.77 1001.21 1001.66 1002.09 1002.50 1002.87 1003.20 1003.47 1003.67 1003.77 1003.77 1003.66 1003.45 1003.12 1002.69 1002.17 1001.59 1000.96
1006.00 1005.44 1004.87 1004.30 1003.74 1003.20 1002.68 1002.18 1001.70 1001.25 1000.81 1000.40 1000.01 999.64 999.31 999.03 998.81 998.66 998.60 998.62 998.73 998.92 999.19 999.53 999.92 1000.35 1000.79 1001.24 1001.69 1002.11 1002.49 1002.81 1003.06 1003.23 1003.30 1003.26 1003.10 1002.83 1002.46 1002.00 1001.46 1000.86 1000.23
1005.56 1005.01 1004.43 1003.85 1003.26 1002.68 1002.10 1001.55 1001.03 1000.53 1000.07 999.64 999.26 998.93 998.64 998.41 998.25 998.15 998.13 998.19 998.32 998.53 998.81 999.14 999.53 999.95 1000.39 1000.84 1001.28 1001.70 1002.07 1002.38 1002.62 1002.77 1002.80 1002.73 1002.54 1002.24 1001.84 1001.36 1000.81 1000.21 999.58
1005.07 1004.52 1003.94 1003.33 1002.71 1002.07 1001.44 1000.83 1000.25 999.72 999.23 998.80 998.43 998.12 997.89 997.72 997.62 997.59 997.63 997.73 997.90 998.13 998.42 998.75 999.13 999.54 999.97 1000.41 1000.84 1001.25 1001.61 1001.91 1002.13 1002.26 1002.29 1002.19 1001.99 1001.68 1001.27 1000.79 1000.24 999.64 999.02
1004.53 1003.97 1003.37 1002.73 1002.06 1001.38 1000.69 1000.02 999.39 998.82 998.31 997.87 997.52 997.26 997.08 996.98 996.95 996.99 997.09 997.25 997.46 997.71 998.01 998.35 998.72 999.11 999.53 999.95 1000.36 1000.76 1001.11 1001.40 1001.61 1001.73 1001.75 1001.66 1001.45 1001.14 1000.74 1000.26 999.72 999.13 998.51
1003.90 1003.33 1002.70 1002.03 1001.32 1000.58 999.85 999.14 998.47 997.86 997.34 996.91 996.59 996.37 996.24 996.21 996.26 996.37 996.54 996.75 997.00 997.29 997.60 997.94 998.29 998.67 999.07 999.47 999.87 1000.24 1000.58 1000.86 1001.07 1001.19 1001.20 1001.11 1000.92 1000.62 1000.23 999.76 999.23 998.65 998.03
1003.19 1002.59 1001.93 1001.23 1000.48 999.71 998.94 998.19 997.49 996.87 996.35 995.94 995.66 995.48 995.42 995.46 995.58 995.77 996.00 996.27 996.56 996.87 997.20 997.54 997.89 998.25 998.63 999.00 999.38 999.73 1000.05 1000.32 1000.52 1000.64 1000.66 1000.57 1000.39 1000.10 999.72 999.27 998.74 998.17 997.55
1002.37 1001.75 1001.07 1000.33 999.56 998.76 997.97 997.21 996.51 995.89 995.39 995.01 994.77 994.66 994.66 994.77 994.96 995.21 995.50 995.83 996.16 996.50 996.84 997.18 997.52 997.87 998.22 998.58 998.92 999.25 999.55 999.80 999.99 1000.10 1000.12 1000.03 999.85 999.57 999.20 998.76 998.24 997.67 997.04
1001.48 1000.83 1000.12 999.37 998.58 997.78 996.98 996.23 995.55 994.96 994.49 994.16 993.97 993.92 993.99 994.16 994.42 994.73 995.09 995.46 995.83 996.19 996.55 996.90 997.23 997.57 997.90 998.22 998.54 998.84 999.11 999.33 999.50 999.59 999.59 999.50 999.32 999.04 998.68 998.24 997.73 997.16 996.54
1000.54 999.86 999.14 998.38 997.59 996.80 996.03 995.30 994.66 994.11 993.70 993.42 993.29 993.30 993.43 993.67 993.99 994.37 994.77 995.19 995.59 995.98 996.35 996.70 997.04 997.35 997.66 997.96 998.24 998.50 998.73 998.92 999.05 999.11 999.10 998.99 998.80 998.52 998.17 997.73 997.23 996.68 996.08
999.59 998.89 998.16 997.41 996.64 995.88 995.15 994.47 993.88 993.39 993.04 992.83 992.76 992.84 993.03 993.33 993.70 994.13 994.58 995.03 995.47 995.88 996.26 996.62 996.94 997.24 997.53 997.79 998.04 998.26 998.44 998.59 998.67 998.70 998.66 998.53 998.33 998.05 997.70 997.28 996.80 996.26 995.68
Thickness
5597 5592 5587 5582 5577 5572 5568 5564 5559 5554 5549 5543 5538 5531 5525 5518 5510 5501 5495 5486 5477 5469 5460 5452 5445 5436 5428 5420 5412 5405 5397 5390 5386 5386 5379 5374 5367 5361 5357 5351 5347 5342 5337
5587 5582 5577 5572 5567 5562 5558 5555 5550 5545 5540 5535 5530 5524 5518 5511 5503 5495 5487 5478 5469 5461 5453 5443 5436 5426 5418 5410 5402 5395 5388 5381 5375 5373 5369 5362 5355 5349 5344 5339 5334 5330 5325
5578 5572 5566 5561 5556 5552 5548 5545 5540 5536 5531 5526 5520 5515 5510 5503 5495 5488 5480 5471 5462 5454 5444 5435 5426 5416 5410 5401 5392 5385 5378 5371 5365 5360 5358 5351 5345 5336 5331 5327 5322 5318 5312
5567 5560 5555 5550 5545 5541 5537 5533 5528 5524 5520 5516 5511 5506 5500 5492 5485 5477 5469 5461 5453 5445 5436 5427 5418 5409 5401 5391 5383 5375 5367 5360 5354 5348 5345 5340 5334 5326 5317 5315 5312 5307 5301
5555 5548 5543 5539 5534 5529 5524 5519 5515 5511 5508 5504 5500 5496 5490 5483 5475 5465 5459 5452 5444 5436 5428 5420 5411 5401 5392 5382 5374 5366 5357 5350 5343 5337 5333 5328 5324 5315 5308 5302 5299 5296 5291
5541 5536 5532 5526 5521 5515 5510 5506 5502 5498 5495 5491 5487 5483 5479 5474 5468 5461 5452 5443 5436 5428 5420 5411 5402 5393 5385 5377 5369 5361 5351 5341 5333 5327 5322 5317 5314 5306 5298 5291 5285 5281 5283
5527 5522 5518 5513 5507 5502 5498 5494 5490 5486 5483 5479 5476 5472 5469 5464 5458 5453 5447 5438 5429 5420 5411 5401 5393 5385 5376 5366 5360 5354 5347 5340 5331 5320 5315 5311 5305 5297 5286 5281 5274 5269 5269
5512 5507 5503 5497 5492 5488 5484 5480 5477 5475 5472 5469 5466 5462 5459 5455 5448 5444 5438 5432 5424 5415 5404 5394 5384 5375 5367 5357 5348 5340 5334 5328 5322 5315 5309 5303 5294 5285 5275 5269 5264 5263 5262
5498 5493 5488 5482 5477 5473 5470 5467 5465 5463 5461 5458 5455 5452 5448 5445 5439 5434 5428 5421 5415 5407 5397 5387 5377 5368 5359 5349 5340 5332 5325 5319 5312 5306 5301 5294 5287 5280 5271 5264 5258 5252 5254
5484 5479 5474 5468 5463 5460 5458 5456 5453 5451 5449 5446 5444 5440 5437 5433 5429 5424 5418 5411 5404 5397 5388 5379 5370 5360 5351 5343 5335 5327 5320 5313 5305 5298 5292 5287 5280 5272 5265 5256 5247 5240 5240
5468 5464 5459 5454 5449 5446 5445 5442 5439 5438 5436 5434 5432 5429 5425 5422 5418 5414 5408 5401 5394 5386 5379 5372 5362 5354 5346 5338 5330 5322 5316 5308 5299 5292 5286 5279 5272 5265 5257 5249 5241 5232 5229
5452 5448 5444 5440 5436 5433 5430 5429 5426 5424 5422 5421 5419 5417 5413 5410 5407 5403 5398 5393 5386 5377 5371 5363 5354 5347 5339 5332 5324 5318 5310 5304 5295 5287 5279 5273 5265 5259 5252 5245 5238 5230 5224
5438 5433 5429 5426 5422 5419 5417 5416 5414 5411 5409 5408 5406 5405 5403 5399 5395 5393 5389 5384 5378 5370 5362 5354 5345 5338 5330 5323 5316 5310 5303 5294 5286 5278 5272 5266 5259 5252 5246 5240 5235 5228 5223
5423 5419 5416 5413 5411 5409 5406 5403 5401 5400 5398 5397 5396 5395 5393 5389 5384 5380 5375 5370 5366 5360 5353 5345 5338 5329 5321 5313 5306 5299 5292 5284 5277 5271 5265 5259 5252 5246 5240 5234 5230 5226 5222
5410 5407 5403 5400 5398 5398 5396 5394 5393 5392 5389 5389 5388 5385 5382 5380 5376 5374 5366 5360 5352 5346 5340 5333 5326 5319 5311 5303 5295 5288 5282 5275 5270 5264 5257 5251 5246 5241 5236 5231 5226 5222 5219
5397 5394 5391 5389 5388 5387 5387 5388 5388 5386 5387 5386 5384 5381 5378 5375 5372 5367 5361 5355 5347 5339 5331 5324 5318 5310 5303 5295 5288 5281 5275 5269 5263 5257 5251 5245 5240 5234 5231 5227 5222 5219 5217
5383 5382 5380 5379 5379 5378 5378 5379 5381 5382 5380 5379 5378 5375 5372 5369 5365 5360 5354 5348 5340 5332 5324 5316 5309 5302 5295 5288 5281 5275 5269 5263 5257 5251 5245 5239 5234 5230 5227 5224 5221 5218 5216
5374 5373 5371 5370 5370 5370 5371 5371 5372 5373 5373 5371 5369 5367 5365 5362 5358 5353 5347 5340 5332 5325 5318 5310 5303 5296 5289 5281 5275 5269 5263 5257 5251 5245 5240 5234 5229 5226 5223 5221 5219 5216 5215
5366 5365 5364 5364 5364 5365 5365 5366 5366 5366 5365 5365 5363 5359 5357 5353 5349 5345 5341 5334 5327 5319 5312 5305 5298 5290 5283 5276 5270 5264 5258 5252 5246 5240 5235 5230 5226 5223 5221 5219 5217 5217 5215
5360 5361 5360 5360 5360 5361 5361 5361 5362 5361 5360 5358 5356 5352 5347 5342 5338 5335 5332 5327 5321 5314 5307 5299 5292 5285 5278 5271 5264 5259 5253 5247 5242 5236 5231 5227 5223 5221 5219 5217 5216 5214 5214
5355 5356 5356 5356 5356 5356 5357 5357 5357 5356 5355 5354 5351 5346 5342 5336 5332 5328 5325 5321 5315 5309 5302 5295 5287 5280 5273 5266 5260 5254 5249 5243 5238 5233 5228 5225 5222 5220 5218 5216 5215 5214 5214
5350 5351 5351 5352 5353 5353 5354 5354 5354 5353 5351 5349 5346 5341 5338 5332 5327 5323 5320 5316 5311 5304 5298 5290 5283 5276 5269 5263 5257 5251 5245 5240 5235 5230 5226 5223 5221 5219 5217 5215 5214 5214 5215
5347 5347 5348 5349 5350 5352 5352 5352 5350 5349 5347 5345 5341 5336 5331 5326 5322 5319 5316 5312 5307 5300 5293 5286 5279 5272 5266 5260 5255 5249 5243 5238 5234 5229 5225 5222 5220 5218 5215 5214 5214 5215 5217
5343 5344 5345 5346 5348 5349 5349 5349 5348 5346 5343 5341 5337 5332 5327 5322 5318 5315 5311 5307 5302 5295 5288 5281 5275 5269 5263 5257 5252 5247 5241 5237 5232 5228 5224 5221 5219 5217 5215 5214 5215 5216 5218
5341 5342 5343 5344 5346 5347 5347 5347 5345 5343 5341 5338 5334 5329 5324 5320 5315 5311 5307 5302 5297 5290 5284 5278 5272 5266 5260 5254 5249 5244 5239 5236 5232 5228 5224 5221 5218 5216 5215 5214 5216 5218 5220
5340 5340 5341 5343 5344 5345 5345 5344 5342 5339 5337 5335 5330 5326 5321 5316 5311 5306 5301 5296 5291 5286 5280 5274 5268 5263 5257 5251 5246 5242 5239 5235 5232 5229 5225 5222 5218 5217 5215 5216 5217 5220 5223